Regional Weather Roundup
Issued by NWS

Home | Current Version | Previous Version | Graphics & Text | Print | Product List | Glossary On
Versions: 1 2 3 4 5 6 7 8 9 10 11 12 13 14 15 16 17 18 19 20 21 22 23 24 25 26 27
000
ASUS45 KSLC 221010
RWRUT

UTAH REGIONAL WEATHER ROUNDUP
NATIONAL WEATHER SERVICE SALT LAKE CITY UT
400 AM MDT TUE APR 22 2014

UTZ001>011-023>025-221100-

NORTHERN UTAH

CITY           SKY/WX    TMP DP  RH WIND       PRES   REMARKS
HILL AFB       MOCLDY    62  33  33 SW9       29.84F
LOGAN          CLOUDY    55  37  50 NE10      29.85S
OGDEN          CLOUDY    63  34  33 SE6       29.82F
PROVO AIRPORT  MOCLDY    59  36  41 S3        29.89F
SALT LAKE CITY MOCLDY    68  30  24 S17       29.82F
VERNAL         PTCLDY    49  34  56 NW7       29.97F
WENDOVER         N/A     57  27  30 CALM      29.81F
HEBER CITY     MOCLDY    46  32  57 NE3       29.93F
WEST JORDAN    CLEAR     63  37  39 SE17      29.85F

$$

UTZ012>022-026-027-221100-

SOUTHERN UTAH

CITY           SKY/WX    TMP DP  RH WIND       PRES   REMARKS
BRYCE CANYON     N/A     35  29  78 CALM      30.12F
CEDAR CITY       N/A     57  27  31 CALM      29.96F
MILFORD          N/A     58  30  34 SW15      29.91F
MOAB/CYNLANDS  CLEAR     60  29  30 SE9       29.93F
PRICE          MOCLDY    49  31  49 NE5       29.99F
ST GEORGE        N/A     68  28  22 SE15      29.86F

$$

REGIONAL REPORTS     COLORADO/ARIZONA

CITY           SKY/WX    TMP DP  RH WIND       PRES   REMARKS
CRAIG, CO      PTCLDY    35  31  85 SW3       30.06F
GRAND JUNCTION MOCLDY    53  32  44 E20       29.99F
RIFLE          PTCLDY    42  31  64 SW3       30.08F
MONTROSE       CLEAR     51  29  42 SE9       30.09F
CORTEZ         CLEAR     37  28  70 CALM      30.11F
PAGE, AZ         N/A     65  31  28 SE6       29.95F
GRAND CANYON     N/A     33  26  75 CALM      30.12F
KINGMAN          N/A     66  30  26 S15       29.93F
FLAGSTAFF        N/A     36  26  67 CALM      30.16F

$$

REGIONAL REPORTS    NEVADA/IDAHO/WYOMING

CITY           SKY/WX    TMP DP  RH WIND       PRES   REMARKS
LAS VEGAS, NV  CLOUDY    77  27  15 S14       29.77F
ELY              N/A     55  22  27 S9        29.91F
ELKO             N/A     49  23  36 E7        29.80F
POCATELLO, ID  CLOUDY    57  38  48 E9        29.87F
BURLEY           N/A     53  39  59 W5        29.78F
EVANSTON, WY     N/A     49  27  42 S9        29.98F
ROCK SPRINGS   CLOUDY    50  26  39 S9        30.00F

$$



USA.gov is the U.S. government's official web portal to all federal, state and local government web resources and services.